EN

Hourly Weather Kaprun

Today, 30 September, Wednesday

Time Temperature Precipitation Wind Pressure Humidity
00:00 +1°C° 0 mm 1 mps 596 mmHg 96%
01:00 +1°C° 0 mm 1 mps 596 mmHg 97%
02:00 +1°C° 0 mm 1 mps 596 mmHg 96%
03:00 +1°C° 0 mm 1 mps 596 mmHg 96%
04:00 +1°C° 0 mm 1 mps 595 mmHg 95%
05:00 +1°C° 0 mm 1 mps 596 mmHg 95%
06:00 +2°C° 0 mm 1 mps 596 mmHg 96%
07:00 +1°C° 0 mm 2 mps 596 mmHg 96%
08:00 +3°C° 0 mm 1 mps 596 mmHg 93%
09:00 +4°C° 0 mm 1 mps 596 mmHg 91%
10:00 +6°C° 0 mm 1 mps 596 mmHg 88%
11:00 +6°C° 0 mm 1 mps 596 mmHg 85%
12:00 +7°C° 0 mm 1 mps 596 mmHg 82%
13:00 +7°C° 0 mm 1 mps 596 mmHg 79%
14:00 +7°C° 0 mm 1 mps 596 mmHg 81%
15:00 +7°C° 0 mm 1 mps 595 mmHg 83%
16:00 +6°C° 0 mm 1 mps 595 mmHg 85%
17:00 +5°C° 0 mm 1 mps 595 mmHg 88%
18:00 +4°C° 0 mm 1 mps 594 mmHg 91%
19:00 +1°C° 0 mm 2 mps 594 mmHg 94%
20:00 +1°C° 0 mm 2 mps 593 mmHg 92%
21:00 +1°C° 0 mm 2 mps 593 mmHg 90%
22:00 +2°C° 0 mm 1 mps 593 mmHg 88%
23:00 +2°C° 0 mm 1 mps 593 mmHg 87%

Tomorrow, 1 October, Thursday

Time Temperature Precipitation Wind Pressure Humidity
00:00 +2°C° 0 mm 1 mps 593 mmHg 85%
01:00 +2°C° 0 mm 1 mps 592 mmHg 84%
02:00 +1°C° 0 mm 2 mps 592 mmHg 84%
03:00 +1°C° 0 mm 2 mps 592 mmHg 83%
04:00 +1°C° 0 mm 2 mps 591 mmHg 82%
05:00 +1°C° 0 mm 2 mps 591 mmHg 81%
06:00 +1°C° 0 mm 2 mps 591 mmHg 80%
07:00 +2°C° 0 mm 2 mps 591 mmHg 78%
08:00 +5°C° 0 mm 1 mps 592 mmHg 77%
09:00 +7°C° 0 mm 1 mps 592 mmHg 76%
10:00 +8°C° 0 mm 1 mps 593 mmHg 75%
11:00 +9°C° 0 mm 1 mps 592 mmHg 73%
12:00 +9°C° 0 mm 1 mps 592 mmHg 71%
13:00 +10°C° 0 mm 1 mps 592 mmHg 70%
14:00 +9°C° 0 mm 1 mps 592 mmHg 73%
15:00 +9°C° 0 mm 1 mps 591 mmHg 76%
16:00 +8°C° 0 mm 1 mps 591 mmHg 79%
17:00 +7°C° 0 mm 1 mps 591 mmHg 82%
18:00 +5°C° 0 mm 1 mps 590 mmHg 85%
19:00 +4°C° 0 mm 1 mps 589 mmHg 88%
20:00 +3°C° 0 mm 1 mps 589 mmHg 88%
21:00 +3°C° 0 mm 1 mps 589 mmHg 88%
22:00 +2°C° 0 mm 1 mps 589 mmHg 89%
23:00 +2°C° 0 mm 1 mps 589 mmHg 88%

Day after tomorrow, 2 October, Friday

Time Temperature Precipitation Wind Pressure Humidity
00:00 +2°C° 0 mm 1 mps 589 mmHg 88%
01:00 +2°C° 0 mm 1 mps 589 mmHg 87%
02:00 +1°C° 0 mm 2 mps 589 mmHg 89%
03:00 +2°C° 0 mm 2 mps 589 mmHg 91%
04:00 +2°C° 0 mm 2 mps 588 mmHg 92%
05:00 +2°C° 0 mm 2 mps 588 mmHg 92%
06:00 +1°C° 0 mm 3 mps 588 mmHg 92%
07:00 +1°C° 0 mm 3 mps 588 mmHg 91%
08:00 +2°C° 0 mm 3 mps 588 mmHg 89%
09:00 +3°C° 0 mm 3 mps 588 mmHg 88%
10:00 +4°C° 0 mm 4 mps 588 mmHg 86%
11:00 +4°C° 0.1 mm 4 mps 588 mmHg 85%
12:00 +5°C° 0.1 mm 4 mps 588 mmHg 84%
13:00 +5°C° 0.1 mm 4 mps 588 mmHg 83%
14:00 +5°C° 0.2 mm 4 mps 588 mmHg 84%
15:00 +5°C° 0.2 mm 4 mps 588 mmHg 85%
16:00 +4°C° 0.2 mm 4 mps 587 mmHg 87%
17:00 +4°C° 0.3 mm 4 mps 587 mmHg 87%
18:00 +4°C° 0.3 mm 4 mps 587 mmHg 88%
19:00 +3°C° 0.3 mm 4 mps 587 mmHg 89%
20:00 +3°C° 0.4 mm 4 mps 588 mmHg 89%
21:00 +3°C° 0.4 mm 4 mps 588 mmHg 89%
22:00 +2°C° 0.4 mm 5 mps 588 mmHg 89%
23:00 +2°C° 0.1 mm 5 mps 588 mmHg 89%

3 October, Saturday

Time Temperature Precipitation Wind Pressure Humidity
00:00 +2°C° 0.1 mm 5 mps 587 mmHg 89%
01:00 +2°C° 0.1 mm 5 mps 587 mmHg 89%
02:00 +2°C° 0 mm 5 mps 587 mmHg 89%
03:00 +2°C° 0 mm 5 mps 587 mmHg 89%
04:00 +2°C° 0 mm 5 mps 587 mmHg 90%
05:00 +2°C° 0 mm 6 mps 586 mmHg 89%
06:00 +3°C° 0 mm 6 mps 586 mmHg 89%
07:00 +3°C° 0 mm 6 mps 586 mmHg 88%
08:00 +4°C° 0.2 mm 6 mps 587 mmHg 86%
09:00 +5°C° 0.2 mm 6 mps 587 mmHg 84%
10:00 +5°C° 0.2 mm 6 mps 587 mmHg 82%
11:00 +7°C° 0.6 mm 5 mps 587 mmHg 81%
12:00 +7°C° 0.6 mm 5 mps 587 mmHg 80%
13:00 +8°C° 0.6 mm 5 mps 587 mmHg 78%
14:00 +7°C° 0.6 mm 5 mps 587 mmHg 80%
15:00 +7°C° 0.6 mm 4 mps 587 mmHg 82%
16:00 +7°C° 0.6 mm 4 mps 587 mmHg 84%
17:00 +6°C° 0.3 mm 4 mps 587 mmHg 87%
18:00 +6°C° 0.3 mm 4 mps 586 mmHg 90%
19:00 +5°C° 0.3 mm 3 mps 586 mmHg 94%
20:00 +4°C° 2.7 mm 3 mps 586 mmHg 95%
21:00 +3°C° 2.7 mm 3 mps 586 mmHg 96%
22:00 +3°C° 2.7 mm 3 mps 586 mmHg 97%
23:00 +2°C° 0.2 mm 3 mps 586 mmHg 96%

4 October, Sunday

Time Temperature Precipitation Wind Pressure Humidity
00:00 0°C° 0.2 mm 4 mps 585 mmHg 95%
01:00 0°C° 0.2 mm 4 mps 585 mmHg 93%
02:00 -1°C° 0 mm 5 mps 585 mmHg 93%
03:00 -2°C° 0 mm 5 mps 585 mmHg 92%
04:00 -2°C° 0 mm 5 mps 585 mmHg 91%
05:00 -2°C° 0 mm 5 mps 585 mmHg 90%
06:00 -2°C° 0 mm 5 mps 586 mmHg 89%
07:00 -2°C° 0 mm 4 mps 587 mmHg 89%
08:00 -1°C° 0 mm 4 mps 587 mmHg 84%
09:00 0°C° 0 mm 4 mps 588 mmHg 80%
10:00 +3°C° 0 mm 4 mps 588 mmHg 76%
11:00 +3°C° 0 mm 4 mps 589 mmHg 74%
12:00 +4°C° 0 mm 4 mps 589 mmHg 73%
13:00 +5°C° 0 mm 4 mps 590 mmHg 72%
14:00 +4°C° 0.1 mm 3 mps 590 mmHg 74%
15:00 +4°C° 0.1 mm 3 mps 589 mmHg 76%
16:00 +4°C° 0.1 mm 3 mps 589 mmHg 78%
17:00 +3°C° 0 mm 3 mps 589 mmHg 82%
18:00 0°C° 0 mm 4 mps 588 mmHg 86%
19:00 -1°C° 0 mm 4 mps 588 mmHg 90%
20:00 -1°C° 0.1 mm 4 mps 587 mmHg 90%
21:00 -1°C° 0.1 mm 4 mps 587 mmHg 90%
22:00 -1°C° 0.1 mm 4 mps 587 mmHg 90%
23:00 0°C° 0.2 mm 3 mps 587 mmHg 91%

5 October, Monday

Time Temperature Precipitation Wind Pressure Humidity
00:00 0°C° 0.2 mm 3 mps 587 mmHg 92%
01:00 0°C° 0.2 mm 3 mps 587 mmHg 93%
02:00 0°C° 1.5 mm 3 mps 586 mmHg 94%
03:00 +1°C° 1.5 mm 2 mps 586 mmHg 95%
04:00 +2°C° 1.5 mm 1 mps 585 mmHg 96%
05:00 +1°C° 2.4 mm 2 mps 585 mmHg 96%
06:00 +1°C° 2.4 mm 2 mps 586 mmHg 97%
07:00 +1°C° 2.4 mm 2 mps 586 mmHg 97%
08:00 +1°C° 0.7 mm 2 mps 586 mmHg 97%
09:00 +1°C° 0.7 mm 2 mps 586 mmHg 97%
10:00 +1°C° 0.7 mm 2 mps 587 mmHg 96%
11:00 +2°C° 0.6 mm 2 mps 587 mmHg 96%
12:00 +2°C° 0.6 mm 2 mps 587 mmHg 95%
13:00 +2°C° 0.6 mm 2 mps 588 mmHg 95%
14:00 +2°C° 0.2 mm 2 mps 588 mmHg 94%
15:00 +2°C° 0.2 mm 2 mps 588 mmHg 92%
16:00 +2°C° 0.2 mm 2 mps 588 mmHg 91%
17:00 +1°C° 0.1 mm 2 mps 588 mmHg 92%
18:00 +1°C° 0.1 mm 2 mps 587 mmHg 93%
19:00 -1°C° 0.1 mm 2 mps 587 mmHg 94%
20:00 -2°C° 0 mm 3 mps 587 mmHg 93%
21:00 -2°C° 0 mm 3 mps 587 mmHg 93%
22:00 -2°C° 0 mm 3 mps 587 mmHg 93%
23:00 -2°C° 0 mm 3 mps 587 mmHg 92%
Show more